| time (UTC) | temp F | wind direction | speed knots | gust knots | rain 1hr in | rain 24hr in | rain mn in | humidity % | barometer mb |
| 20260507003548 | 74 | 242 | 7.0 | 11.3 | 0.00 | 0.00 | 0.00 | 44 | 834.7 |
| 20260507003046 | 74 | 222 | 7.0 | 11.3 | 0.00 | 0.00 | 0.00 | 42 | 807.6 |
| 20260507002029 | 75 | 207 | 6.1 | 13.0 | 0.00 | 0.00 | 0.00 | 42 | 808.2 |
| 20260507001528 | 75 | 223 | 7.0 | 13.0 | 0.00 | 0.00 | 0.00 | 42 | 814.8 |
| 20260507001027 | 75 | 228 | 7.8 | 12.2 | 0.00 | 0.00 | 0.00 | 41 | 813.7 |
| 20260507000009 | 76 | 209 | 5.2 | 11.3 | 0.00 | 0.00 | 0.00 | 40 | 798.1 |
| 20260506235508 | 76 | 219 | 4.3 | 11.3 | 0.00 | 0.00 | 0.00 | 40 | 826.2 |
| 20260506235007 | 77 | 211 | 2.6 | 9.6 | 0.00 | 0.00 | 0.00 | 38 | 856.7 |
| 20260506234506 | 77 | 237 | 2.6 | 9.6 | 0.00 | 0.00 | 0.00 | 37 | 868.8 |
| 20260506234005 | 76 | 210 | 2.6 | 13.9 | 0.00 | 0.00 | 0.00 | 38 | 828.7 |
| 20260506233500 | 76 | 223 | 5.2 | 13.9 | 0.00 | 0.00 | 0.00 | 39 | 862.3 |
| 20260506232959 | 76 | 256 | 4.3 | 10.4 | 0.00 | 0.00 | 0.00 | 38 | 867.3 |
| 20260506232458 | 76 | 232 | 5.2 | 10.4 | 0.00 | 0.00 | 0.00 | 38 | 865.0 |
| 20260506230925 | 76 | 212 | 1.7 | 10.4 | 0.00 | 0.00 | 0.00 | 39 | 852.3 |
| 20260506230424 | 76 | 253 | 7.0 | 10.4 | 0.00 | 0.00 | 0.00 | 39 | 869.7 |
| 20260506225923 | 76 | 295 | 3.5 | 13.0 | 0.00 | 0.00 | 0.00 | 38 | 843.0 |
| 20260506225422 | 76 | 226 | 7.0 | 13.0 | 0.00 | 0.00 | 0.00 | 36 | 786.0 |
| 20260506224405 | 76 | 229 | 3.5 | 9.6 | 0.00 | 0.00 | 0.00 | 37 | 671.4 |
| 20260506223904 | 77 | 113 | 1.7 | 9.6 | 0.00 | 0.00 | 0.00 | 37 | 611.8 |
| 20260506223403 | 77 | 355 | 6.1 | 9.6 | 0.00 | 0.00 | 0.00 | 37 | 775.2 |
| 20260506222902 | 78 | 251 | 4.3 | 13.0 | 0.00 | 0.00 | 0.00 | 37 | 704.9 |
| 20260506222401 | 79 | 89 | 0.0 | 13.0 | 0.00 | 0.00 | 0.00 | 24 | 514.9 |
| 20260506221859 | 79 | 21 | 2.6 | 13.0 | 0.00 | 0.00 | 0.00 | 25 | 625.5 |
| 20260506221358 | 79 | 318 | 3.5 | 13.0 | 0.00 | 0.00 | 0.00 | 31 | 618.5 |
| 20260506220857 | 79 | 347 | 2.6 | 9.6 | 0.00 | 0.00 | 0.00 | 28 | 531.9 |
| 20260506220356 | 79 | 38 | 3.5 | 9.6 | 0.00 | 0.00 | 0.00 | 25 | 467.5 |
| 20260506215855 | 79 | 358 | 2.6 | 9.6 | 0.00 | 0.00 | 0.00 | 25 | 661.5 |
| 20260506214838 | 78 | 279 | 5.2 | 9.6 | 0.00 | 0.00 | 0.00 | 31 | 717.6 |
| 20260506214337 | 78 | 222 | 2.6 | 9.6 | 0.00 | 0.00 | 0.00 | 32 | 471.1 |
| 20260506213836 | 78 | 65 | 2.6 | 9.6 | 0.00 | 0.00 | 0.00 | 27 | 419.6 |
| 20260506213334 | 78 | 149 | 2.6 | 9.6 | 0.00 | 0.00 | 0.00 | 26 | 418.8 |
| 20260506212832 | 78 | 64 | 4.3 | 9.6 | 0.00 | 0.00 | 0.00 | 27 | 354.3 |
| 20260506212331 | 78 | 26 | 2.6 | 9.6 | 0.00 | 0.00 | 0.00 | 27 | 372.5 |
| 20260506211830 | 78 | 116 | 2.6 | 9.6 | 0.00 | 0.00 | 0.00 | 26 | 374.6 |
| 20260506211329 | 78 | 83 | 2.6 | 9.6 | 0.00 | 0.00 | 0.00 | 28 | 350.3 |
| 20260506210828 | 78 | 53 | 4.3 | 9.6 | 0.00 | 0.00 | 0.00 | 28 | 334.7 |
| 20260506210327 | 78 | 54 | 4.3 | 11.3 | 0.00 | 0.00 | 0.00 | 28 | 362.1 |
| 20260506205825 | 78 | 9 | 2.6 | 11.3 | 0.00 | 0.00 | 0.00 | 29 | 353.6 |
| 20260506205324 | 77 | 23 | 1.7 | 9.6 | 0.00 | 0.00 | 0.00 | 30 | 408.3 |
| 20260506204823 | 77 | 50 | 3.5 | 9.6 | 0.00 | 0.00 | 0.00 | 28 | 512.0 |
| 20260506204321 | 78 | 10 | 3.5 | 9.6 | 0.00 | 0.00 | 0.00 | 28 | 520.6 |
| 20260506203820 | 77 | 308 | 2.6 | 11.3 | 0.00 | 0.00 | 0.00 | 29 | 746.7 |
| 20260506203319 | 77 | 76 | 0.9 | 11.3 | 0.00 | 0.00 | 0.00 | 31 | 477.5 |
| 20260506202305 | 76 | 111 | 0.9 | 11.3 | 0.00 | 0.00 | 0.00 | 29 | 437.6 |
| 20260506201801 | 76 | 86 | 0.9 | 11.3 | 0.00 | 0.00 | 0.00 | 31 | 383.6 |
| 20260506201300 | 76 | 9 | 2.6 | 11.3 | 0.00 | 0.00 | 0.00 | 30 | 400.2 |
| 20260506200759 | 76 | 27 | 2.6 | 11.3 | 0.00 | 0.00 | 0.00 | 31 | 401.5 |
| 20260506195226 | 76 | 21 | 4.3 | 11.3 | 0.00 | 0.00 | 0.00 | 30 | 666.4 |
| 20260506193713 | 75 | 232 | 1.7 | 11.3 | 0.00 | 0.00 | 0.00 | 29 | 968.8 |
| 20260506192139 | 75 | 322 | 0.0 | 10.4 | 0.00 | 0.00 | 0.00 | 30 | 1014.1 |
| 20260506191638 | 74 | 330 | 4.3 | 10.4 | 0.00 | 0.00 | 0.00 | 33 | 920.4 |
| 20260506191136 | 74 | 204 | 2.6 | 9.6 | 0.00 | 0.00 | 0.00 | 33 | 708.0 |
| 20260506190635 | 74 | 313 | 5.2 | 9.6 | 0.00 | 0.00 | 0.00 | 33 | 849.1 |
| 20260506190134 | 74 | 7 | 2.6 | 9.6 | 0.00 | 0.00 | 0.00 | 32 | 715.0 |
| 20260506185117 | 73 | 320 | 1.7 | 9.6 | 0.00 | 0.00 | 0.00 | 34 | 970.9 |
| 20260506184100 | 73 | 309 | 6.1 | 10.4 | 0.00 | 0.00 | 0.00 | 34 | 1030.2 |
| 20260506183559 | 73 | 312 | 1.7 | 9.6 | 0.00 | 0.00 | 0.00 | 34 | 962.5 |
| 20260506183058 | 72 | 335 | 1.7 | 9.6 | 0.00 | 0.00 | 0.00 | 35 | 1036.2 |
| 20260506182557 | 72 | 340 | 3.5 | 9.6 | 0.00 | 0.00 | 0.00 | 36 | 926.5 |
| 20260506181540 | 71 | 358 | 0.9 | 9.6 | 0.00 | 0.00 | 0.00 | 37 | 898.5 |
| 20260506181039 | 71 | 339 | 1.7 | 9.6 | 0.00 | 0.00 | 0.00 | 38 | 888.9 |
| 20260506180538 | 70 | 352 | 3.5 | 9.6 | 0.00 | 0.00 | 0.00 | 37 | 731.8 |
| 20260506180037 | 70 | 9 | 1.7 | 9.6 | 0.00 | 0.00 | 0.00 | 39 | 726.4 |
| 20260506175536 | 69 | 232 | 1.7 | 9.6 | 0.00 | 0.00 | 0.00 | 41 | 777.8 |
| 20260506175035 | 69 | 184 | 1.7 | 9.6 | 0.00 | 0.00 | 0.00 | 39 | 798.3 |
| 20260506174534 | 70 | 351 | 2.6 | 9.6 | 0.00 | 0.00 | 0.00 | 39 | 715.2 |
| 20260506174033 | 70 | 17 | 1.7 | 9.6 | 0.00 | 0.00 | 0.00 | 41 | 721.5 |
| 20260506173532 | 69 | 336 | 0.0 | 9.6 | 0.00 | 0.00 | 0.00 | 44 | 966.9 |
| 20260506172515 | 69 | 339 | 0.9 | 9.6 | 0.00 | 0.00 | 0.00 | 43 | 547.6 |
| 20260506171458 | 68 | 63 | 1.7 | 9.6 | 0.00 | 0.00 | 0.00 | 45 | 296.2 |
| 20260506170957 | 67 | 65 | 1.7 | 9.6 | 0.00 | 0.00 | 0.00 | 46 | 301.4 |
| 20260506170456 | 67 | 46 | 0.9 | 9.6 | 0.00 | 0.00 | 0.00 | 47 | 273.0 |
| 20260506165955 | 66 | 18 | 0.9 | 9.6 | 0.00 | 0.00 | 0.00 | 47 | 246.7 |
| 20260506165454 | 66 | 10 | 1.7 | 9.6 | 0.00 | 0.00 | 0.00 | 48 | 299.6 |
| 20260506164953 | 66 | 32 | 1.7 | 9.6 | 0.00 | 0.00 | 0.00 | 48 | 273.4 |
| 20260506164452 | 66 | 52 | 0.0 | 9.6 | 0.00 | 0.00 | 0.00 | 49 | 307.3 |
| 20260506163951 | 65 | 52 | 0.0 | 9.6 | 0.00 | 0.00 | 0.00 | 50 | 293.5 |
| 20260506162934 | 65 | 28 | 0.9 | 9.6 | 0.00 | 0.00 | 0.00 | 49 | 313.1 |
| 20260506162433 | 65 | 37 | 0.9 | 9.6 | 0.00 | 0.00 | 0.00 | 50 | 366.1 |
| 20260506161416 | 63 | 38 | 0.0 | 9.6 | 0.00 | 0.00 | 0.00 | 51 | 603.8 |
| 20260506160915 | 63 | 23 | 0.9 | 9.6 | 0.00 | 0.00 | 0.00 | 53 | 916.3 |
| 20260506160414 | 62 | 344 | 0.9 | 9.6 | 0.00 | 0.00 | 0.00 | 54 | 1176.4 |
| 20260506155913 | 61 | 338 | 0.0 | 9.6 | 0.00 | 0.00 | 0.00 | 54 | 1174.2 |
| 20260506155412 | 61 | 338 | 0.9 | 9.6 | 0.00 | 0.00 | 0.00 | 56 | 1173.0 |
| 20260506154911 | 60 | 338 | 0.0 | 9.6 | 0.00 | 0.00 | 0.00 | 59 | 1169.8 |
| 20260506154410 | 59 | 337 | 0.0 | 9.6 | 0.00 | 0.00 | 0.00 | 60 | 1163.0 |
| 20260506153909 | 59 | 336 | 0.9 | 9.6 | 0.00 | 0.00 | 0.00 | 61 | 1153.0 |
| 20260506153408 | 58 | 334 | 0.0 | 9.6 | 0.00 | 0.00 | 0.00 | 63 | 1133.6 |
| 20260506152907 | 58 | 323 | 0.9 | 9.6 | 0.00 | 0.00 | 0.00 | 65 | 1104.8 |
| 20260506152406 | 57 | 320 | 1.7 | 9.6 | 0.00 | 0.00 | 0.00 | 65 | 1107.6 |
| 20260506151905 | 57 | 307 | 3.5 | 9.6 | 0.00 | 0.00 | 0.00 | 64 | 1093.8 |
| 20260506151403 | 57 | 300 | 3.5 | 9.6 | 0.00 | 0.00 | 0.00 | 66 | 1095.4 |
| 20260506150902 | 56 | 320 | 0.9 | 9.6 | 0.00 | 0.00 | 0.00 | 69 | 1124.9 |
| 20260506150401 | 55 | 319 | 0.9 | 9.6 | 0.00 | 0.00 | 0.00 | 69 | 1118.1 |
| 20260506145900 | 54 | 313 | 1.7 | 9.6 | 0.00 | 0.00 | 0.00 | 69 | 1097.3 |
| 20260506145359 | 54 | 327 | 1.7 | 9.6 | 0.00 | 0.00 | 0.00 | 70 | 1095.2 |
| 20260506144858 | 54 | 313 | 2.6 | 9.6 | 0.00 | 0.00 | 0.00 | 70 | 1080.5 |
| 20260506144357 | 54 | 305 | 0.0 | 9.6 | 0.00 | 0.00 | 0.00 | 72 | 1073.7 |
| 20260506143856 | 53 | 303 | 0.0 | 9.6 | 0.00 | 0.00 | 0.00 | 74 | 1073.8 |
| 20260506143355 | 52 | 301 | 0.9 | 9.6 | 0.00 | 0.00 | 0.00 | 74 | 1067.0 |
| 20260506142854 | 52 | 302 | 0.9 | 9.6 | 0.00 | 0.00 | 0.00 | 74 | 1068.0 |
| 20260506142353 | 51 | 293 | 0.0 | 9.6 | 0.00 | 0.00 | 0.00 | 76 | 1068.4 |
| 20260506141852 | 51 | 295 | 0.9 | 9.6 | 0.00 | 0.00 | 0.00 | 77 | 1090.1 |
| 20260506140835 | 50 | 314 | 0.0 | 9.6 | 0.00 | 0.00 | 0.00 | 80 | 1129.8 |
| 20260506135818 | 48 | 348 | 2.6 | 9.6 | 0.00 | 0.00 | 0.00 | 83 | 1156.4 |
| 20260506135317 | 47 | 342 | 3.5 | 9.6 | 0.00 | 0.00 | 0.00 | 85 | 1110.7 |
| 20260506134816 | 46 | 290 | 2.6 | 9.6 | 0.00 | 0.00 | 0.00 | 88 | 1031.9 |
| 20260506134316 | 45 | 283 | 0.9 | 9.6 | 0.00 | 0.00 | 0.00 | 91 | 1043.1 |
| 20260506132746 | 42 | 294 | 3.5 | 9.6 | 0.00 | 0.00 | 0.00 | 89 | 1045.5 |
| 20260506132246 | 42 | 304 | 2.6 | 9.6 | 0.00 | 0.00 | 0.00 | 89 | 1041.4 |
| 20260506131746 | 42 | 297 | 2.6 | 9.6 | 0.00 | 0.00 | 0.00 | 88 | 1023.9 |
| 20260506131246 | 42 | 286 | 0.0 | 9.6 | 0.00 | 0.00 | 0.00 | 88 | 1018.5 |
| 20260506130230 | 42 | 286 | 0.0 | 9.6 | 0.00 | 0.00 | 0.00 | 87 | 1019.1 |
| 20260506125729 | 42 | 286 | 0.0 | 9.6 | 0.00 | 0.00 | 0.00 | 87 | 1019.9 |
| 20260506125228 | 43 | 286 | 0.0 | 9.6 | 0.00 | 0.00 | 0.00 | 87 | 1019.5 |
| 20260506124212 | 43 | 286 | 0.0 | 9.6 | 0.00 | 0.00 | 0.00 | 87 | 1018.1 |
| 20260506123157 | 43 | 286 | 0.0 | 9.6 | 0.00 | 0.00 | 0.00 | 86 | 1017.4 |
| 20260506122657 | 43 | 286 | 0.0 | 9.6 | 0.00 | 0.00 | 0.00 | 86 | 1017.2 |
| 20260506122157 | 44 | 286 | 0.0 | 9.6 | 0.00 | 0.00 | 0.00 | 85 | 1018.5 |
| 20260506121657 | 44 | 286 | 0.0 | 9.6 | 0.00 | 0.00 | 0.00 | 84 | 1018.4 |
| 20260506121157 | 44 | 286 | 0.0 | 9.6 | 0.00 | 0.00 | 0.00 | 84 | 1019.2 |
| 20260506120657 | 45 | 286 | 0.0 | 9.6 | 0.00 | 0.00 | 0.00 | 83 | 1019.4 |
| 20260506115641 | 46 | 286 | 0.0 | 9.6 | 0.00 | 0.00 | 0.00 | 82 | 1021.6 |
| 20260506114626 | 47 | 287 | 0.0 | 9.6 | 0.00 | 0.00 | 0.00 | 81 | 1026.2 |
| 20260506114126 | 47 | 287 | 0.0 | 9.6 | 0.00 | 0.00 | 0.00 | 82 | 1028.2 |
| 20260506113626 | 47 | 287 | 0.9 | 9.6 | 0.00 | 0.00 | 0.00 | 82 | 1032.0 |
| 20260506113126 | 47 | 307 | 2.6 | 9.6 | 0.00 | 0.00 | 0.00 | 81 | 1039.2 |
| 20260506112626 | 47 | 277 | 1.7 | 9.6 | 0.00 | 0.00 | 0.00 | 81 | 1044.5 |
| 20260506112126 | 47 | 304 | 4.3 | 9.6 | 0.00 | 0.00 | 0.00 | 81 | 1062.5 |
| 20260506111626 | 47 | 292 | 4.3 | 9.6 | 0.00 | 0.00 | 0.00 | 81 | 1063.9 |
| 20260506111126 | 47 | 297 | 4.3 | 9.6 | 0.00 | 0.00 | 0.00 | 81 | 1083.7 |
| 20260506110626 | 48 | 314 | 1.7 | 9.6 | 0.00 | 0.00 | 0.00 | 80 | 1105.9 |
| 20260506105610 | 48 | 313 | 1.7 | 9.6 | 0.00 | 0.00 | 0.00 | 80 | 1070.5 |
| 20260506105109 | 48 | 300 | 2.6 | 9.6 | 0.00 | 0.00 | 0.00 | 80 | 1051.7 |
| 20260506104608 | 48 | 291 | 4.3 | 9.6 | 0.00 | 0.00 | 0.00 | 80 | 1048.6 |
| 20260506103035 | 49 | 307 | 3.5 | 9.6 | 0.00 | 0.00 | 0.00 | 76 | 1009.3 |
| 20260506102534 | 50 | 284 | 2.6 | 9.6 | 0.00 | 0.00 | 0.00 | 76 | 956.1 |
| 20260506102034 | 49 | 237 | 4.3 | 9.6 | 0.00 | 0.00 | 0.00 | 77 | 992.4 |
| 20260506101532 | 49 | 296 | 4.3 | 10.4 | 0.00 | 0.00 | 0.00 | 78 | 1028.1 |
| 20260506101031 | 49 | 290 | 2.6 | 10.4 | 0.00 | 0.00 | 0.00 | 78 | 1013.6 |
| 20260506100014 | 49 | 305 | 1.7 | 9.6 | 0.00 | 0.00 | 0.00 | 78 | 1038.8 |
| 20260506095513 | 49 | 297 | 1.7 | 9.6 | 0.00 | 0.00 | 0.00 | 78 | 1038.8 |
| 20260506095012 | 49 | 306 | 1.7 | 9.6 | 0.00 | 0.00 | 0.00 | 78 | 1034.8 |
| 20260506094511 | 49 | 265 | 2.6 | 9.6 | 0.00 | 0.00 | 0.00 | 78 | 956.6 |
| 20260506094010 | 49 | 282 | 3.5 | 9.6 | 0.00 | 0.00 | 0.00 | 79 | 970.8 |
| 20260506092953 | 49 | 278 | 2.6 | 9.6 | 0.00 | 0.00 | 0.00 | 79 | 922.6 |
| 20260506092452 | 49 | 310 | 1.7 | 9.6 | 0.00 | 0.00 | 0.00 | 79 | 881.1 |
| 20260506091951 | 48 | 290 | 0.9 | 9.6 | 0.00 | 0.00 | 0.00 | 80 | 1000.3 |
| 20260506091450 | 49 | 334 | 0.9 | 9.6 | 0.00 | 0.00 | 0.00 | 79 | 960.3 |
| 20260506090949 | 49 | 1 | 0.9 | 9.6 | 0.00 | 0.00 | 0.00 | 79 | 720.7 |
| 20260506085932 | 49 | 338 | 0.9 | 9.6 | 0.00 | 0.00 | 0.00 | 78 | 1012.4 |
| 20260506084915 | 49 | 317 | 1.7 | 9.6 | 0.00 | 0.00 | 0.00 | 78 | 969.4 |
| 20260506084414 | 49 | 8 | 1.7 | 9.6 | 0.00 | 0.00 | 0.00 | 78 | 797.5 |
| 20260506083913 | 50 | 327 | 0.9 | 9.6 | 0.00 | 0.00 | 0.00 | 77 | 910.7 |
| 20260506083412 | 50 | 316 | 2.6 | 9.6 | 0.00 | 0.00 | 0.00 | 77 | 711.8 |
| 20260506082911 | 50 | 178 | 0.9 | 12.2 | 0.00 | 0.00 | 0.00 | 76 | 731.4 |
| 20260506082409 | 50 | 294 | 1.7 | 12.2 | 0.00 | 0.00 | 0.00 | 76 | 894.7 |
| 20260506081909 | 50 | 224 | 3.5 | 9.6 | 0.00 | 0.00 | 0.00 | 76 | 882.2 |
| 20260506081407 | 50 | 233 | 3.5 | 10.4 | 0.00 | 0.00 | 0.00 | 76 | 900.7 |
| 20260506080350 | 50 | 65 | 0.9 | 9.6 | 0.00 | 0.00 | 0.00 | 77 | 798.0 |
| 20260506073328 | 50 | 291 | 2.6 | 9.6 | 0.00 | 0.00 | 0.00 | 75 | 973.9 |
| 20260506072827 | 50 | 267 | 2.6 | 11.3 | 0.00 | 0.00 | 0.00 | 75 | 917.6 |
| 20260506072326 | 50 | 221 | 2.6 | 11.3 | 0.00 | 0.00 | 0.00 | 76 | 914.1 |
| 20260506070754 | 50 | 282 | 3.5 | 9.6 | 0.00 | 0.00 | 0.00 | 77 | 988.4 |
| 20260506070252 | 50 | 306 | 4.3 | 11.3 | 0.00 | 0.00 | 0.00 | 77 | 1000.8 |
| 20260506062245 | 49 | 353 | 0.9 | 9.6 | 0.00 | 0.00 | 0.00 | 78 | 681.3 |
| 20260506061744 | 49 | 309 | 0.9 | 9.6 | 0.00 | 0.00 | 0.00 | 78 | 738.2 |
| 20260506061243 | 49 | 85 | 0.9 | 9.6 | 0.00 | 0.00 | 0.00 | 78 | 476.9 |
| 20260506060742 | 49 | 29 | 0.9 | 9.6 | 0.00 | 0.00 | 0.00 | 79 | 509.4 |
| 20260506060240 | 49 | 32 | 1.7 | 9.6 | 0.00 | 0.00 | 0.00 | 79 | 742.7 |
| 20260506050659 | 50 | 303 | 4.3 | 10.4 | 0.00 | 0.00 | 0.00 | 77 | 1008.7 |
| 20260506050158 | 50 | 259 | 2.6 | 10.4 | 0.00 | 0.00 | 0.00 | 77 | 982.2 |
| 20260506044656 | 50 | 260 | 3.5 | 10.4 | 0.00 | 0.00 | 0.00 | 77 | 940.6 |
| 20260506044154 | 50 | 254 | 2.6 | 10.4 | 0.00 | 0.00 | 0.00 | 77 | 948.5 |
| 20260506043653 | 50 | 282 | 3.5 | 10.4 | 0.00 | 0.00 | 0.00 | 77 | 933.7 |
| 20260506042637 | 51 | 227 | 1.7 | 10.4 | 0.00 | 0.00 | 0.00 | 77 | 837.6 |
| 20260506042136 | 51 | 210 | 2.6 | 10.4 | 0.00 | 0.00 | 0.00 | 77 | 850.3 |
| 20260506041636 | 51 | 220 | 2.6 | 10.4 | 0.00 | 0.00 | 0.00 | 77 | 887.3 |
| 20260506041135 | 51 | 279 | 1.7 | 10.4 | 0.00 | 0.00 | 0.00 | 77 | 947.4 |
| 20260506040634 | 51 | 266 | 0.9 | 10.4 | 0.00 | 0.00 | 0.00 | 76 | 921.6 |
| 20260506040133 | 51 | 234 | 1.7 | 10.4 | 0.00 | 0.00 | 0.00 | 76 | 920.7 |
| 20260506035632 | 51 | 276 | 2.6 | 10.4 | 0.00 | 0.00 | 0.00 | 76 | 856.0 |
| 20260506034616 | 51 | 246 | 3.5 | 10.4 | 0.00 | 0.00 | 0.00 | 76 | 841.1 |
| 20260506033600 | 51 | 223 | 5.2 | 11.3 | 0.00 | 0.00 | 0.00 | 76 | 827.3 |
| 20260506033059 | 51 | 222 | 3.5 | 11.3 | 0.00 | 0.00 | 0.00 | 75 | 822.3 |
| 20260506032558 | 51 | 215 | 5.2 | 11.3 | 0.00 | 0.00 | 0.00 | 75 | 820.0 |
| 20260506032056 | 52 | 222 | 5.2 | 11.3 | 0.00 | 0.00 | 0.00 | 74 | 825.5 |
| 20260506031039 | 52 | 239 | 3.5 | 10.4 | 0.00 | 0.00 | 0.00 | 73 | 829.9 |
| 20260506030022 | 52 | 206 | 3.5 | 10.4 | 0.00 | 0.00 | 0.00 | 72 | 802.3 |
| 20260506025521 | 52 | 207 | 5.2 | 10.4 | 0.00 | 0.00 | 0.00 | 72 | 796.9 |
| 20260506025021 | 52 | 193 | 2.6 | 9.6 | 0.00 | 0.00 | 0.00 | 72 | 798.4 |
| 20260506024519 | 52 | 221 | 4.3 | 13.0 | 0.00 | 0.00 | 0.00 | 71 | 820.3 |
| 20260506023503 | 53 | 217 | 4.3 | 11.3 | 0.00 | 0.00 | 0.00 | 71 | 811.3 |
| 20260506023002 | 53 | 217 | 4.3 | 11.3 | 0.00 | 0.00 | 0.00 | 71 | 811.5 |
| 20260506022459 | 53 | 210 | 4.3 | 11.3 | 0.00 | 0.00 | 0.00 | 71 | 808.7 |
| 20260506021443 | 53 | 226 | 2.6 | 13.0 | 0.00 | 0.00 | 0.00 | 71 | 801.7 |
| 20260506020942 | 54 | 233 | 5.2 | 13.0 | 0.00 | 0.00 | 0.00 | 70 | 804.3 |
| 20260506020440 | 54 | 197 | 4.3 | 13.0 | 0.00 | 0.00 | 0.00 | 70 | 805.7 |
| 20260506015940 | 54 | 225 | 6.1 | 11.3 | 0.00 | 0.00 | 0.00 | 69 | 831.7 |
| 20260506014922 | 54 | 217 | 3.5 | 11.3 | 0.00 | 0.00 | 0.00 | 69 | 825.9 |
| 20260506014422 | 54 | 230 | 6.1 | 11.3 | 0.00 | 0.00 | 0.00 | 69 | 823.1 |
| 20260506013920 | 54 | 239 | 6.1 | 11.3 | 0.00 | 0.00 | 0.00 | 68 | 829.1 |
| 20260506013420 | 54 | 238 | 3.5 | 10.4 | 0.00 | 0.00 | 0.00 | 68 | 810.9 |
| 20260506012918 | 54 | 211 | 5.2 | 10.4 | 0.00 | 0.00 | 0.00 | 68 | 802.5 |
| 20260506010829 | 55 | 226 | 6.1 | 13.0 | 0.00 | 0.00 | 0.00 | 67 | 842.6 |
| 20260506010328 | 55 | 231 | 7.0 | 12.2 | 0.00 | 0.00 | 0.00 | 67 | 840.8 |
| 20260506004755 | 56 | 228 | 5.2 | 12.2 | 0.00 | 0.00 | 0.00 | 65 | 855.0 |